PROFILE

 METAR AND TAF INFORMATION
ADDS - METARS form results

(0839 UTC 19 August 2019)
http://aviationweather.gov/metar/data/
 
LSGG 190820Z 23006KT 170V260 9999 FEW015 BKN100 21/17 Q1018 NOSIG
LSGG 190750Z 25006KT 9999 FEW010 BKN110 20/18 Q1018 NOSIG
TAF LSGG 190825Z 1909/2015 24006KT 9999 FEW015 BKN100 TX23/1915Z TN15/2006Z TX19/2014Z PROB30 TEMPO 1913/1919 SHRA FEW050TCU BECMG 1914/1917 04007KT BECMG 1920/1923 VRB03KT TEMPO 1923/2003 4500 SHRA SCT050TCU BECMG 2005/2008 RA 

 AIRPORT MAP

 RUNWAY INFORMATION
Runway 05 Runway length 12795 ft Runway width 164 ft
Runway elevation 1411 ft Runway displaced threshold 1082 ft Runway heading 46
Runway 23 Runway length 12795 ft Runway width 164 ft
Runway elevation 1365 ft Runway displaced threshold 0 ft Runway heading 226
Runway 05L Runway length 2700 ft Runway width 98 ft
Runway elevation 1378 ft Runway displaced threshold 613 ft Runway heading 46
Runway 23R Runway length 2700 ft Runway width 98 ft
Runway elevation 1393 ft Runway displaced threshold 994 ft Runway heading 226

 AIRPORT FREQUENCIES
Type APP Name APP Frequency 120.3 MHZ
Type ARR Name ARR Frequency 136.25 MHZ
Type ATIS Name ATIS Frequency 135.575 MHZ
Type DEP Name DEP Frequency 119.525 MHZ
Type GND Name GND Frequency 121.675 MHZ
Type GTE Name APN Frequency 121.75 MHZ
Type TWR Name TWR Frequency 118.7 MHZ

 AIRPORT NEAR NAVIGATION AIDS
Type NDB Name Gland Frequency 375 KHZ
Type VOR-DME Name Geneva Cointrin Frequency 115750 KHZ
Type VOR-DME Name Passeiry Frequency 116600 KHZ